[Date Prev][Date Next][Thread Prev][Thread Next] - [Date Index][Thread Index][Author Index]
2 Line ISS Keps 1-24
- Subject: [sarex] 2 Line ISS Keps 1-24
- From: "Dave Larsen PhD" <doc@xxxxxxxxxxx>
- Date: Mon, 23 Jan 2006 20:32:17 -0800
ISS
1 25544U 98067A 06024.15983796 .00009168 00000-0 66635-4 0 2098
2 25544 051.6437 208.1059 0010082 188.0981 331.9303 15.74185717410462
----
Via the sarex mailing list at AMSAT.ORG courtesy of AMSAT-NA.
To unsubscribe, send "unsubscribe sarex" to Majordomo@amsat.org
AMSAT Home